Weather History for North Island, CA

Change the Weather History Date:

Friday, November 1, 2013

  Actual Average Record
Temperature  
Mean Temperature 70 °F -  
Max Temperature 84 °F 66 °F 85 °F (2005)
Min Temperature 57 °F 54 °F 48 °F (1996)
Cooling Degree Days 6    
Growing Degree Days 20 (Base 50)    
Moisture  
Dew Point 47 °F    
Average Humidity 50    
Maximum Humidity 78    
Minimum Humidity 20    
Precipitation  
Precipitation 0.00 in - - ()
Sea Level Pressure  
Sea Level Pressure 30.00 in    
Wind  
Wind Speed 3 mph (NNW)    
Max Wind Speed 15 mph    
Max Gust Speed -    
Visibility 10 miles    
Events      
Averages and records for this station are not official NWS values.
T = Trace of Precipitation, MM = Missing Value Source: NWS Daily Summary

Daily Weather History Graph

Daily Weather History Graph

Search for Another Location

Airport:

Trip Planner

Search our weather history database for the weather conditions in past years. The results will help you decide how hot, cold, wet, or windy it might be!

Date:

Astronomy

Nov. 01, 2013 Rise Set
Actual Time 7:06 AM PDT 5:57 PM PDT
Civil Twilight 6:41 AM PDT 6:23 PM PDT
Nautical Twilight 6:12 AM PDT 6:52 PM PDT
Astronomical Twilight 5:43 AM PDT 7:21 PM PDT
Moon 5:09 AM PDT (11/1) 4:49 PM PDT (11/1)
Length of Visible Light 11h 41m
Length of Day
10h 50m
Waning Crescent, 4% of the Moon is Illuminated
Nov 1
Waning Crescent
Nov 3
New
Nov 9
First Quarter
Nov 17
Full
Nov 25
Last Quarter

Hourly Weather History & Observations

Time (PDT) Temp. Dew Point Humidity Pressure Visibility Wind Dir Wind Speed Gust Speed Precip Events Conditions
12:52 AM 61.0 °F 48.9 °F 64% 30.05 in 10.0 mi Calm Calm - N/A   Clear
1:52 AM 61.0 °F 51.1 °F 70% 30.05 in 10.0 mi Calm Calm - N/A   Clear
2:52 AM 61.0 °F 53.1 °F 75% 30.05 in 9.0 mi North 4.6 mph - N/A   Clear
3:52 AM 60.1 °F 48.9 °F 67% 30.04 in 9.0 mi Calm Calm - N/A   Clear
4:52 AM 60.1 °F 46.9 °F 62% 30.04 in 9.0 mi Calm Calm - N/A   Clear
5:52 AM 57.9 °F 46.9 °F 67% 30.05 in 10.0 mi Calm Calm - N/A   Clear
6:52 AM 57.9 °F 46.9 °F 67% 30.05 in 10.0 mi Calm Calm - N/A   Clear
7:52 AM 60.1 °F 46.9 °F 62% 30.07 in 10.0 mi Calm Calm - N/A   Clear
8:52 AM 66.0 °F 44.1 °F 45% 30.08 in 10.0 mi NNW 3.5 mph - N/A   Clear
9:52 AM 73.0 °F 41.0 °F 31% 30.08 in 10.0 mi North 4.6 mph - N/A   Clear
10:52 AM 80.1 °F 36.0 °F 20% 30.06 in 10.0 mi Calm Calm - N/A   Clear
11:52 AM 84.0 °F 39.0 °F 20% 30.04 in 10.0 mi North 8.1 mph - N/A   Clear
12:52 PM 82.9 °F 39.9 °F 22% 30.01 in 10.0 mi NW 10.4 mph - N/A   Clear
1:52 PM 82.9 °F 37.9 °F 20% 29.97 in 10.0 mi NW 12.7 mph - N/A   Clear
2:52 PM 82.9 °F 39.0 °F 21% 29.94 in 10.0 mi NW 15.0 mph - N/A   Clear
3:52 PM 80.1 °F 44.1 °F 28% 29.92 in 10.0 mi NW 15.0 mph - N/A   Clear
4:52 PM 75.0 °F 51.1 °F 43% 29.92 in 10.0 mi NW 13.8 mph - N/A   Clear
5:52 PM 73.0 °F 52.0 °F 48% 29.92 in 10.0 mi NNW 9.2 mph - N/A   Clear
6:52 PM 70.0 °F 52.0 °F 53% 29.94 in 10.0 mi WNW 8.1 mph - N/A   Clear
7:52 PM 68.0 °F 51.1 °F 55% 29.94 in 10.0 mi Calm Calm - N/A   Clear
8:52 PM 66.0 °F 52.0 °F 60% 29.95 in 10.0 mi Calm Calm - N/A   Clear
9:52 PM 68.0 °F 54.0 °F 61% 29.97 in 10.0 mi NNW 3.5 mph - N/A   Clear
10:52 PM 68.0 °F 57.0 °F 68% 29.99 in 9.0 mi NNE 5.8 mph - N/A   Clear
11:52 PM 63.0 °F 55.9 °F 78% 29.99 in 8.0 mi ENE 3.5 mph - N/A   Clear